[[{"header":{"parameterUnit":"m.s-1","parameterCategory":1,"la1":30.2991,"la2":30.254,"lo1":-89.0895,"lo2":-89.0444,"dy":0.0017,"dx":0.0017,"nx":28,"ny":28,"refTime":"2023-10-11T09:00:00:Z","depth":0,"parameterNumber":2,"parameterNumberName":"U-component_of_WINDS"},"data":[0,0,0,0,0,0,0,0,0,0,0,0,0,0,0,0,0,0,0,0,0,0,0,0,0,0,0,0,0,0,0,0,0,0,0,0,0,0,0,0,0,0,0,0,0,0,0,0,0,0,0,0,0,0,0,0,0,0,-4.8018,-4.8018,0,-4.802,-4.8021,-4.8021,-4.7854,-4.785,-4.7845,-4.7841,-4.7844,-4.7848,-4.7852,0,0,0,0,0,0,0,0,0,0,0,0,0,-4.787,-4.7874,-4.8018,-4.8018,-4.8018,-4.802,-4.8021,-4.8021,-4.7855,-4.7849,-4.7844,-4.7839,-4.7843,-4.7848,-4.7853,0,0,0,0,0,0,0,0,0,0,0,0,0,-4.791,-4.7875,-4.8018,-4.7936,-4.7928,-4.802,-4.8021,-4.8021,-4.7856,-4.7849,-4.7843,-4.7836,-4.7841,-4.7847,-4.7853,-4.8025,0,0,-4.7873,-4.7875,0,0,0,0,0,0,0,0,-4.7908,-4.7915,-4.7948,-4.7942,-4.7933,-4.793,-4.7969,-4.8022,-4.7858,-4.7884,-4.7841,-4.7833,-4.7878,-4.7881,-4.7896,-4.8025,-4.8025,-4.7873,-4.7877,-4.788,-4.7882,0,0,0,0,0,0,0,-4.7905,-4.7914,-4.8019,-4.7948,-4.794,-4.7899,-4.7897,-4.7978,-4.7918,-4.7881,-4.7869,-4.7871,-4.7873,-4.789,-4.7895,-4.8025,-4.7873,-4.7879,-4.7883,-4.7885,-4.8294,-4.8301,0,0,0,0,0,0,-4.7914,-4.7913,-4.8019,-4.8019,-4.7904,-4.7907,-4.7905,-4.7938,-4.7917,-4.7907,-4.7877,-4.7863,-4.7883,-4.7888,-4.7894,-4.8093,-4.788,-4.7886,-4.7889,-4.8287,-4.8296,-4.8304,0,0,0,0,0,0,-4.7911,-4.7925,-4.8019,-4.7963,-4.7972,-4.7916,-4.7955,-4.7941,-4.7958,-4.7914,-4.7902,-4.7906,-4.7878,-4.7885,-4.7993,-4.8091,-4.7888,-4.7894,-4.8279,-4.829,-4.83,-4.8494,0,0,0,0,0,0,-4.7908,-4.7925,-4.7989,-4.7965,-4.7975,-4.8119,-4.7961,-4.7946,-4.797,-4.7952,-4.7938,-4.7929,-4.7873,-4.7985,-4.8,-4.8096,-4.7899,-4.827,-4.8284,-4.8296,-4.8478,-4.851,-4.8537,0,0,0,0,0,-4.7903,-4.8044,-4.7993,-4.8007,-4.8055,-4.8125,-4.813,-4.8063,-4.7978,-4.8043,-4.8014,-4.7929,-4.8078,-4.7997,-4.8013,-4.8113,-4.8263,-4.828,-4.8295,-4.8465,-4.8504,-4.8536,0,0,0,0,0,0,-4.8081,-4.8039,-4.7983,-4.812,-4.8127,-4.8096,-4.8175,-4.8106,-4.8137,-4.8119,-4.8034,-4.8033,-4.8154,-4.8144,-4.8055,-4.8277,-4.8156,-4.8176,-4.828,-4.8316,-4.8344,-4.8345,-4.7904,0,0,0,0,0,-4.8136,-4.8196,-4.8156,-4.8282,-4.8288,-4.8232,-4.826,-4.8207,-4.8211,-4.8213,-4.8192,-4.8199,-4.8247,-4.828,-4.8322,-4.8476,-4.847,-4.8552,-4.8581,-4.8605,-4.8623,-4.8704,-4.874,-4.8356,-4.8356,-4.8356,0,0,-4.8251,-4.8236,-4.8279,-4.8317,-4.8316,-4.8381,-4.8235,-4.8309,-4.8356,-4.8224,-4.8325,-4.831,-4.8312,-4.8444,-4.8501,-4.8439,-4.8728,-4.8625,-4.8645,-4.865,-4.8724,-4.8761,-4.8793,-4.8367,-4.8365,-4.8363,0,0,-4.8493,-4.8488,-4.8592,-4.8594,-4.8594,-4.8555,-4.8581,-4.856,-4.8545,-4.8645,-4.8547,-4.8602,-4.8686,-4.8692,-4.8706,-4.895,-4.8874,-4.8966,-4.9119,-4.9198,-4.9228,-4.9255,-4.9343,-4.9375,-4.8984,-4.8985,-4.8985,0,-4.8636,-4.8729,-4.8654,-4.8735,-4.8754,-4.8637,-4.8742,-4.8748,-4.8762,-4.8779,-4.8709,-4.8813,-4.8806,-4.8937,-4.8997,-4.9012,-4.9038,-4.8968,-4.923,-4.9256,-4.9279,-4.9362,-4.9395,-4.8996,-4.8995,-4.8994,-4.8993,0,-4.8905,-4.8971,-4.9054,-4.9071,-4.91,-4.9193,-4.9132,-4.917,-4.9115,-4.9085,-4.9188,-4.9175,-4.9213,-4.9239,-4.9187,-4.9364,-4.9326,-4.9245,-4.9121,-4.9329,-4.9405,-4.9436,-4.9012,-4.9008,-4.9005,-4.9002,0,0,-4.926,-4.9234,-4.9266,-4.9272,-4.9264,-4.9313,-4.94,-4.9437,-4.9472,-4.9485,-4.9556,-4.9631,-4.9555,-4.9572,-4.9518,-4.9588,-4.9783,-4.9498,-4.9497,-4.9552,-4.9978,-5.004,-5.0078,-4.9732,-4.9738,-4.9742,-4.9978,0,-4.9495,-4.9643,-4.9578,-4.9732,-4.9792,-4.9681,-4.9757,-4.976,-4.9734,-4.9781,-4.9751,-4.9805,-4.9701,-4.971,-4.9774,-4.9746,-4.9868,-4.9728,-4.9798,-4.9801,-4.9802,-5.0118,-5.0183,-5.0406,-5.0007,-5.0012,-5.0016,0,-4.979,-4.9816,-4.9976,-4.9957,-4.998,-5.0049,-5.0077,-5.0123,-5.0125,-5.01,-5.0119,-5.0049,-5.0133,-5.001,-5.0125,-5.0032,-5.0056,-5.0047,-5.0053,-5.0058,-4.9922,-5.0132,-5.0476,-5.051,-5.0062,-5.0059,-5.0055,0,-5.0034,-5.0109,-5.0214,-5.0223,-5.0203,-5.0255,-5.0249,-5.0243,-5.027,-5.0294,-5.031,-5.0344,-5.0364,-5.0392,-5.0333,-5.0249,-5.0457,-5.0329,-5.0439,-5.0441,-5.0489,-5.0487,-5.0843,-5.0504,-5.0504,-5.0503,-5.0502,0,-5.0304,-5.0407,-5.0324,-5.0389,-5.0501,-5.0424,-5.0537,-5.0519,-5.0515,-5.0575,-5.0481,-5.054,-5.0459,-5.0509,-5.0464,-5.0566,-5.0575,-5.0558,-5.0545,-5.0567,-5.057,-5.0583,-5.0566,-5.0512,-5.051,-5.0508,-5.0506,0,-5.0596,-5.0545,-5.0652,-5.0625,-5.062,-5.0704,-5.068,-5.0739,-5.0705,-5.0782,-5.0796,-5.0744,-5.0798,-5.0743,-5.0793,-5.0763,-5.0901,-5.0865,-5.0901,-5.0891,-5.1005,-5.0996,-5.1383,-5.143,-5.1061,-5.1064,-5.1067,0,-5.0772,-5.0849,-5.0829,-5.0862,-5.0862,-5.0917,-5.0943,-5.0871,-5.0902,-5.0909,-5.0968,-5.1014,-5.1047,-5.1139,-5.1106,-5.1144,-5.1109,-5.1242,-5.1114,-5.1134,-5.1112,-5.1108,-5.1116,-5.1269,-5.1273,-5.1276,-5.1279,0,-5.1091,-5.1062,-5.1102,-5.1136,-5.1169,-5.1191,-5.1206,-5.1239,-5.1164,-5.1204,-5.1258,-5.1284,-5.1335,-5.1383,-5.1411,-5.1405,-5.1331,-5.132,-5.1347,-5.1371,-5.1389,-5.1382,-5.0973,-5.1311,-5.1308,-5.1306,-5.1304,-5.1303,-5.1331,-5.1393,-5.139,-5.1438,-5.1442,-5.1458,-5.1513,-5.1486,-5.153,-5.1566,-5.152,-5.1588,-5.1587,-5.1617,-5.162,-5.1671,-5.1615,-5.1655,-5.1665,-5.1677,-5.1694,-5.1381,-5.1676,-5.1675,-5.1674,-5.1673,-5.1673,0,-5.1645,-5.1637,-5.1682,-5.1706,-5.1745,-5.1671,-5.1684,-5.1721,-5.1781,-5.1787,-5.1821,-5.1884,-5.1929,-5.19,-5.1938,-5.1985,-5.1952,-5.1998,-5.1994,-5.1994,-5.1742,-5.1714,-5.2024,-5.2024,-5.2024,-5.2024,-5.2024,-5.2024,-5.1813,-5.1915,-5.1886,-5.1989,-5.198,-5.2045,-5.2059,-5.2073,-5.2077,-5.2151,-5.2188,-5.2168,-5.216,-5.2197,-5.2236,-5.2225,-5.2245,-5.2303,-5.2281,-5.2046,-5.2012,-5.1979,-5.1953,-5.2307,-5.2308,-5.2529,-5.2531,-5.2533]},{"header":{"parameterUnit":"m.s-1","parameterCategory":1,"la1":30.2991,"la2":30.254,"lo1":-89.0895,"lo2":-89.0444,"dy":0.0017,"dx":0.0017,"nx":28,"ny":28,"refTime":"2023-10-11T09:00:00:Z","depth":0,"parameterNumber":3,"parameterNumberName":"V-component_of_WINDS"},"data":[0,0,0,0,0,0,0,0,0,0,0,0,0,0,0,0,0,0,0,0,0,0,0,0,0,0,0,0,0,0,0,0,0,0,0,0,0,0,0,0,0,0,0,0,0,0,0,0,0,0,0,0,0,0,0,0,0,0,-3.0763,-3.0762,0,-3.0748,-3.0748,-3.0748,-3.0698,-3.0697,-3.0695,-3.0694,-3.068,-3.068,-3.0681,0,0,0,0,0,0,0,0,0,0,0,0,0,-3.0746,-3.0747,-3.0763,-3.0762,-3.0762,-3.0748,-3.0748,-3.0748,-3.0698,-3.0697,-3.0695,-3.0694,-3.0679,-3.068,-3.0681,0,0,0,0,0,0,0,0,0,0,0,0,0,-3.0745,-3.0747,-3.0763,-3.0736,-3.0733,-3.0748,-3.0748,-3.0748,-3.0698,-3.0697,-3.0695,-3.0693,-3.0679,-3.068,-3.0681,-3.0721,0,0,-3.0684,-3.0684,0,0,0,0,0,0,0,0,-3.0745,-3.0745,-3.074,-3.0738,-3.0735,-3.0723,-3.0737,-3.0739,-3.0699,-3.0711,-3.0694,-3.0692,-3.0695,-3.0695,-3.0696,-3.072,-3.072,-3.0684,-3.0685,-3.0685,-3.0685,0,0,0,0,0,0,0,-3.0745,-3.0746,-3.0757,-3.074,-3.0737,-3.0724,-3.0722,-3.0737,-3.0713,-3.071,-3.0707,-3.0706,-3.0694,-3.0695,-3.0695,-3.072,-3.0684,-3.0685,-3.0686,-3.0686,-3.0774,-3.0776,0,0,0,0,0,0,-3.0749,-3.0746,-3.0757,-3.0756,-3.0736,-3.0726,-3.0723,-3.0729,-3.0713,-3.0709,-3.0707,-3.0703,-3.0694,-3.0694,-3.0695,-3.0738,-3.0685,-3.0686,-3.0687,-3.0772,-3.0774,-3.0776,0,0,0,0,0,0,-3.0749,-3.075,-3.0758,-3.075,-3.075,-3.0728,-3.0734,-3.0729,-3.073,-3.071,-3.0706,-3.0713,-3.0693,-3.0693,-3.0714,-3.0737,-3.0687,-3.0687,-3.077,-3.0773,-3.0775,-3.0828,0,0,0,0,0,0,-3.0749,-3.0751,-3.0766,-3.0751,-3.0751,-3.0778,-3.0735,-3.073,-3.0732,-3.0727,-3.0715,-3.0711,-3.0692,-3.0713,-3.0715,-3.0738,-3.0688,-3.0768,-3.0771,-3.0774,-3.0824,-3.0832,-3.0839,0,0,0,0,0,-3.0748,-3.0782,-3.0767,-3.0769,-3.0769,-3.078,-3.078,-3.0757,-3.0734,-3.0749,-3.0736,-3.0711,-3.0735,-3.0716,-3.0718,-3.0741,-3.0766,-3.077,-3.0774,-3.082,-3.083,-3.0838,0,0,0,0,0,0,-3.08,-3.0779,-3.0763,-3.0792,-3.0788,-3.0771,-3.0789,-3.0768,-3.077,-3.0765,-3.0737,-3.0735,-3.0759,-3.0753,-3.0732,-3.0778,-3.0746,-3.0751,-3.0781,-3.079,-3.0797,-3.0797,-3.0689,0,0,0,0,0,-3.0815,-3.0825,-3.0807,-3.0835,-3.0833,-3.0812,-3.0816,-3.0798,-3.0793,-3.0791,-3.0779,-3.0775,-3.0781,-3.0785,-3.079,-3.0823,-3.0819,-3.084,-3.0847,-3.0854,-3.0857,-3.0872,-3.088,-3.0789,-3.0789,-3.0789,0,0,-3.0846,-3.0836,-3.0844,-3.0845,-3.0839,-3.085,-3.0811,-3.0824,-3.0831,-3.0793,-3.0811,-3.0803,-3.0796,-3.0823,-3.0834,-3.0818,-3.0882,-3.0859,-3.0864,-3.0864,-3.0877,-3.0885,-3.0893,-3.0792,-3.0791,-3.0791,0,0,-3.0907,-3.0901,-3.0923,-3.0918,-3.091,-3.0896,-3.0901,-3.0887,-3.088,-3.0898,-3.0869,-3.0878,-3.089,-3.0885,-3.0884,-3.0943,-3.092,-3.0946,-3.0984,-3.0998,-3.1006,-3.1012,-3.103,-3.1038,-3.095,-3.095,-3.095,0,-3.0946,-3.096,-3.0936,-3.0951,-3.0951,-3.0917,-3.0938,-3.0935,-3.093,-3.0931,-3.0913,-3.0926,-3.0919,-3.0943,-3.0957,-3.0959,-3.0963,-3.0946,-3.1007,-3.1012,-3.1018,-3.1035,-3.1043,-3.0953,-3.0953,-3.0952,-3.0952,0,-3.1008,-3.1018,-3.1037,-3.1031,-3.1034,-3.1053,-3.103,-3.1036,-3.1019,-3.1006,-3.1025,-3.1015,-3.1017,-3.1022,-3.1005,-3.1043,-3.1033,-3.1012,-3.0979,-3.103,-3.1046,-3.1052,-3.0957,-3.0956,-3.0955,-3.0955,0,0,-3.1099,-3.108,-3.1087,-3.1083,-3.1073,-3.108,-3.1097,-3.1098,-3.1102,-3.11,-3.1111,-3.1122,-3.1102,-3.1101,-3.1084,-3.1097,-3.1142,-3.1074,-3.1073,-3.1085,-3.118,-3.1195,-3.1203,-3.1127,-3.1128,-3.1129,-3.118,0,-3.1155,-3.118,-3.1159,-3.1189,-3.1197,-3.1165,-3.1179,-3.1174,-3.1162,-3.1168,-3.1155,-3.1162,-3.1136,-3.1135,-3.1147,-3.1134,-3.116,-3.113,-3.1136,-3.1137,-3.1136,-3.1211,-3.1227,-3.1275,-3.1186,-3.1187,-3.1188,0,-3.1223,-3.1222,-3.1253,-3.1238,-3.1241,-3.1254,-3.1252,-3.1259,-3.1252,-3.1242,-3.1241,-3.122,-3.1234,-3.1205,-3.1223,-3.1203,-3.1204,-3.1198,-3.12,-3.1197,-3.1164,-3.1209,-3.129,-3.1296,-3.1198,-3.1197,-3.1197,0,-3.1283,-3.1291,-3.1309,-3.1307,-3.1292,-3.1301,-3.1295,-3.1287,-3.1288,-3.1287,-3.1288,-3.1289,-3.1289,-3.129,-3.127,-3.125,-3.129,-3.1259,-3.1281,-3.1281,-3.1288,-3.1288,-3.1368,-3.1294,-3.1294,-3.1294,-3.1294,0,-3.1345,-3.1365,-3.1336,-3.1347,-3.1367,-3.1343,-3.1363,-3.1354,-3.1346,-3.1355,-3.1328,-3.1336,-3.131,-3.1315,-3.13,-3.1316,-3.1317,-3.1309,-3.1304,-3.1309,-3.131,-3.1308,-3.1303,-3.1296,-3.1295,-3.1295,-3.1295,0,-3.1415,-3.1397,-3.1414,-3.1398,-3.1395,-3.141,-3.1396,-3.1405,-3.1393,-3.1403,-3.1404,-3.1384,-3.1389,-3.1369,-3.1371,-3.1361,-3.1384,-3.1375,-3.1386,-3.1382,-3.1404,-3.1401,-3.1484,-3.1493,-3.1416,-3.1417,-3.1417,0,-3.1455,-3.1469,-3.1454,-3.1457,-3.1453,-3.1459,-3.146,-3.1437,-3.1439,-3.1432,-3.1442,-3.1445,-3.1445,-3.1454,-3.144,-3.144,-3.143,-3.1459,-3.1429,-3.1434,-3.1427,-3.1425,-3.1425,-3.1464,-3.1465,-3.1466,-3.1466,0,-3.1526,-3.1517,-3.1519,-3.1519,-3.1521,-3.152,-3.1516,-3.1521,-3.1496,-3.15,-3.1504,-3.1505,-3.1506,-3.1508,-3.1506,-3.15,-3.1478,-3.1476,-3.1481,-3.1485,-3.149,-3.1485,-3.1399,-3.1474,-3.1473,-3.1472,-3.1472,-3.1472,-3.158,-3.159,-3.1581,-3.1585,-3.158,-3.1577,-3.1585,-3.1573,-3.1576,-3.1575,-3.1562,-3.1568,-3.156,-3.1555,-3.155,-3.1555,-3.1541,-3.1549,-3.155,-3.1551,-3.1554,-3.1492,-3.1555,-3.1554,-3.1554,-3.1554,-3.1554,0,-3.1648,-3.1641,-3.1644,-3.164,-3.1643,-3.1624,-3.1619,-3.1622,-3.1628,-3.1623,-3.1624,-3.1628,-3.163,-3.1616,-3.1616,-3.1622,-3.1612,-3.1623,-3.1621,-3.1619,-3.1568,-3.1562,-3.1631,-3.1631,-3.1631,-3.1631,-3.1631,-3.1631,-3.1683,-3.1698,-3.1688,-3.17,-3.1692,-3.1698,-3.1697,-3.1694,-3.1689,-3.1695,-3.1697,-3.1687,-3.1678,-3.1677,-3.1678,-3.1673,-3.1673,-3.1687,-3.1679,-3.163,-3.1623,-3.1616,-3.161,-3.1688,-3.1688,-3.1729,-3.173,-3.173]}]]